RELEVES METEO NEUVILLE
Donnes mto: Actuelle vendredi, 23/02/2018 21:10
Date Horaire Temp. E. Hum. E. P.atmo. Pluie Vent Direction Direction P. de rose Temp au vent Rafales
23/02/2018 21:10 -0,1 C 67 % 1017,4 hPa 0,0 mm 8,0 km/h (2 Bft) N-NE 20 -5,5 C -1,8 C 12,9 km/h (3 Bft)
23/02/2018 21:05 -0,1 C 67 % 1017,4 hPa 0,0 mm 7,1 km/h (2 Bft) N-NE 17 -5,5 C -0,8 C 12,9 km/h (3 Bft)
23/02/2018 21:00 0,0 C 66 % 1017,4 hPa 0,0 mm 8,0 km/h (2 Bft) N-NE 23 -5,6 C -1,6 C 12,9 km/h (3 Bft)
23/02/2018 20:55 0,1 C 66 % 1017,4 hPa 0,0 mm 7,6 km/h (2 Bft) N-NE 23 -5,5 C -1,1 C 12,9 km/h (3 Bft)
23/02/2018 20:50 0,1 C 66 % 1017,2 hPa 0,0 mm 8,3 km/h (2 Bft) NE 36 -5,5 C -1,8 C 12,9 km/h (3 Bft)
23/02/2018 20:45 0,2 C 66 % 1017,3 hPa 0,0 mm 8,4 km/h (2 Bft) N-NE 24 -5,4 C -1,8 C 12,9 km/h (3 Bft)
23/02/2018 20:40 0,2 C 65 % 1017,2 hPa 0,0 mm 8,2 km/h (2 Bft) NE 38 -5,6 C -1,6 C 12,9 km/h (3 Bft)
23/02/2018 20:35 0,2 C 65 % 1017,3 hPa 0,0 mm 8,6 km/h (2 Bft) N-NE 22 -5,6 C -2,0 C 16,1 km/h (3 Bft)
23/02/2018 20:30 0,3 C 65 % 1017,3 hPa 0,0 mm 8,9 km/h (2 Bft) N-NE 20 -5,5 C -2,2 C 14,5 km/h (3 Bft)
23/02/2018 20:25 0,3 C 64 % 1017,2 hPa 0,0 mm 7,6 km/h (2 Bft) N-NE 24 -5,7 C -0,9 C 14,5 km/h (3 Bft)
23/02/2018 20:20 0,3 C 64 % 1017,3 hPa 0,0 mm 8,1 km/h (2 Bft) N-NE 23 -5,7 C -1,4 C 12,9 km/h (3 Bft)
23/02/2018 20:15 0,4 C 64 % 1017,3 hPa 0,0 mm 8,8 km/h (2 Bft) N-NE 26 -5,6 C -2,0 C 16,1 km/h (3 Bft)
23/02/2018 20:10 0,4 C 64 % 1017,2 hPa 0,0 mm 9,1 km/h (2 Bft) N 355 -5,6 C -2,2 C 17,7 km/h (3 Bft)
23/02/2018 20:05 0,4 C 64 % 1017,3 hPa 0,0 mm 8,2 km/h (2 Bft) N-NE 30 -5,6 C -1,4 C 14,5 km/h (3 Bft)
23/02/2018 20:00 0,5 C 64 % 1017,4 hPa 0,0 mm 8,3 km/h (2 Bft) N 5 -5,5 C -1,4 C 14,5 km/h (3 Bft)
23/02/2018 19:55 0,6 C 63 % 1017,4 hPa 0,0 mm 8,9 km/h (2 Bft) N-NE 14 -5,6 C -1,8 C 12,9 km/h (3 Bft)
23/02/2018 19:50 0,7 C 63 % 1017,3 hPa 0,0 mm 9,8 km/h (2 Bft) NE 35 -5,5 C -2,5 C 14,5 km/h (3 Bft)
23/02/2018 19:45 0,7 C 63 % 1017,4 hPa 0,0 mm 8,9 km/h (2 Bft) N-NE 22 -5,5 C -1,7 C 17,7 km/h (3 Bft)
23/02/2018 19:40 0,7 C 63 % 1017,3 hPa 0,0 mm 10,8 km/h (2 Bft) N 355 -5,5 C -3,3 C 16,1 km/h (3 Bft)
23/02/2018 19:35 0,7 C 63 % 1017,3 hPa 0,0 mm 9,6 km/h (2 Bft) N-NE 24 -5,5 C -2,3 C 17,7 km/h (3 Bft)
23/02/2018 19:30 0,7 C 63 % 1017,4 hPa 0,0 mm 10,0 km/h (2 Bft) NE 47 -5,5 C -2,7 C 17,7 km/h (3 Bft)
_ Min-Heure 08:00 15:35 16:25 - 03:45 - - 20:20 06:25 01:05
Minimum _ -2,9 C 53 % 1016,7 hPa - 3,1 km/h (1 Bft) - - -5,7 C -6,2 C 9,7 km/h (2 Bft)
_ Max-Heure 15:25 03:40 01:10 00:00 13:30 - - 13:55 15:20 13:30
Maximum _ 3,7 C 85 % 1020,0 hPa 0,0 mm 16,6 km/h
N-NE (3 Bft)
- - -3,5 C 1,9 C 32,2 km/h
N-NE (5 Bft)
Moyenne _ 0,3 C 70 % 1018,3 hPa #0,0 mm 8,7 km/h (2 Bft) N-NE - -4,7 C -1,9 C 16,3 km/h (3 Bft)
NEUVILLE ST REMY